Regional Weather Roundup
Issued by NWS

Home | Current Version | Previous Version | Text Only | Print | Product List | Glossary On
Versions: 1 2 3 4 5 6 7 8 9 10 11 12 13 14 15 16 17 18 19 20 21 22 23 24 25 26 27 28 29 30 31 32 33 34 35 36 37 38 39 40 41 42 43 44 45 46 47 48 49 50
000
ASUS43 KLMK 071310
RWRKY
KENTUCKY REGIONAL WEATHER ROUNDUP
NATIONAL WEATHER SERVICE LOUISVILLE KY
800 AM EST WED DEC 07 2016

NOTE "FAIR" INDICATES FEW OR NO CLOUDS BELOW 12,000 FEET
WITH NO SIGNIFICANT WEATHER AND/OR OBSTRUCTIONS TO VISIBILITY.

KYZ001>023-026-027-061>063-070>075-071400-
WESTERN AND SOUTH CENTRAL KENTUCKY

CITY           SKY/WX    TMP DP  RH WIND       PRES   REMARKS
PADUCAH        CLOUDY    32  25  75 N6        30.20R WCI  26
HENDERSON      CLEAR     30  23  74 NW3       30.22R
OWENSBORO      PTCLDY    32  27  81 NW6       30.22R WCI  26
HOPKINSVILLE   CLOUDY    34  34  99 N8        30.17R WCI  28
BOWLING GREEN  PTCLDY    34  32  92 MISG      30.17S FOG
GLASGOW        CLEAR     32  32 100 N3        30.16R
$$

KYZ024-025-028>034-038-045-046-053-071400-
NORTH CENTRAL KENTUCKY

CITY           SKY/WX    TMP DP  RH WIND       PRES   REMARKS
LOUISVILLE/SDF PTCLDY    34  26  72 NW6       30.18R WCI  29
LOUISVILLE/LOU PTCLDY    33  27  78 NW5       30.19R WCI  29
FORT KNOX      CLOUDY    29  28  94 N5        30.15S WCI  24
$$

KYZ035>037-039>044-047>052-055>060-089>105-071400-
NORTHEAST KENTUCKY

CITY           SKY/WX    TMP DP  RH WIND       PRES   REMARKS
LEXINGTON      PTCLDY    32  28  85 CALM      30.14S
COVINGTON      MOCLDY    30  25  81 W5        30.14R WCI  25
FRANKFORT      CLOUDY    30  27  88 CALM      30.15R
$$

KYZ054-064>069-076>088-106>120-071400-
SOUTHEAST KENTUCKY

CITY           SKY/WX    TMP DP  RH WIND       PRES   REMARKS
JACKSON        CLEAR     33  28  81 VRB5      30.11R WCI  29
LONDON         CLEAR     34  31  88 CALM      30.12R
SOMERSET       PTCLDY    32  32 100 CALM      30.15R
MIDDLESBORO    CLOUDY    37  36  98 NW5       30.12R WCI  33
MONTICELLO     SUNNY     34  31  88 N14       30.15R WCI  25
$$




USA.gov is the U.S. government's official web portal to all federal, state and local government web resources and services.